Regional Weather Roundup
Issued by NWS

Home | Current Version | Previous Version | Text Only | Print | Product List | Glossary Off
Versions: 1 2 3 4 5 6 7 8 9 10 11 12 13 14 15 16 17 18 19 20 21 22 23 24 25 26 27 28 29 30 31 32 33 34 35 36 37 38 39 40 41 42 43 44 45 46 47 48 49 50

000
ASUS43 KMKX 200700
RWRWI

WISCONSIN REGIONAL WEATHER ROUNDUP
NATIONAL WEATHER SERVICE MILWAUKEE/SULLIVAN WI
100 AM CST FRI JAN 20 2017

NOTE: "FAIR" INDICATES FEW OR NO CLOUDS BELOW 12,000 FEET WITH NO
SIGNIFICANT WEATHER AND/OR OBSTRUCTIONS TO VISIBILITY.

WIZ001-002-006>008-014>016-023>028-200800-
NORTHWEST WISCONSIN

CITY           SKY/WX    TMP DP  RH WIND       PRES   REMARKS
SUPERIOR ARPT  CLOUDY    31  31 100 CALM      29.69F FOG
ASHLAND        CLOUDY    32  29  88 CALM      29.72S
HAYWARD        CLOUDY    35  30  82 SE6       29.70F WCI  30
SIREN          CLOUDY    37  32  84 SE7       29.69S WCI  31
CUMBERLAND     CLOUDY    34  32  93 SE7       29.69F WCI  28
RICE LAKE      LGT RAIN  35  32  89 SE6       29.71F WCI  30
CHETEK         CLOUDY    35  32  90 SE6       29.71F WCI  30
LADYSMITH      CLOUDY    35  32  89 SE7       29.73F WCI  29
EAU CLAIRE     LGT RAIN  35  34  96 E5        29.70F FOG     WCI  31
MENOMONIE        N/A    N/A N/A N/A MISG        N/A
NEW RICHMOND   DRIZZLE   35  34  98 SE3       29.68F
OSCEOLA        DRIZZLE   36  36 100 SE7       29.71S WCI  30
$$

WIZ003>005-009-010-017-018-200800-
NORTH CENTRAL WISCONSIN

CITY           SKY/WX    TMP DP  RH WIND       PRES   REMARKS
MANITOWISH WTR   N/A     27  27 100 CALM      29.72F FOG
ARBOR VITAE    FOG       29  28  96 CALM      29.73F VSB 1/2
WOODRUFF       FOG       29  28  96 CALM      29.73F VSB 1/2
RHINELANDER    PTCLDY    29  29 100 CALM      29.73F FOG
EAGLE RIVER    PTCLDY    26  26 100 CALM      29.73S FOG
LAND O LAKES   CLOUDY    24  23  97 CALM      29.75S
PHILLIPS       CLOUDY    32  30  93 CALM      29.72F
TOMAHAWK       CLOUDY    30  30  98 CALM      29.74F FOG
MEDFORD        MIX PCPN  32  31  97 SE5       29.73F WCI  27
MERRILL        MIX PCPN  32  32 100 CALM        N/A
$$

WIZ029-030-035-036-043>047-200800-
CENTRAL WISCONSIN

CITY           SKY/WX    TMP DP  RH WIND       PRES   REMARKS
WAUSAU         MIX PCPN  31  30  96 E5        29.72F FOG     WCI  26
MOSINEE        CLOUDY    32  32 100 E6        29.75F FOG     WCI  26
MARSHFIELD     MIX PCPN  32  31  96 E6        29.71F FOG     WCI  26
STEVENS POINT  MIX PCPN  31  31 100 E3        29.75F
WAUPACA        LGT RAIN  33  32  95 CALM      29.78F
WAUTOMA        MIX PCPN  32  32 100 NE7       29.75F FOG     WCI  26
WISC RAPIDS    LGT RAIN  33  33 100 E3        29.74F FOG
CAMP DOUGLAS   LGT RAIN  34  32  93 E7        29.70F FOG     WCI  28
$$

WIZ011>013-019>022-031-037>040-048>050-200800-
NORTHEAST WISCONSIN

CITY           SKY/WX    TMP DP  RH WIND       PRES   REMARKS
ANTIGO         CLOUDY    30  30 100 SE3       29.75F FOG
SHAWANO        FOG       33  32  97 CALM      29.79F VSB 1/2
OCONTO         NOT AVBL
STURGEON BAY   FOG       33  32  96 CALM      29.79F VSB 1/4
GREEN BAY      FOG       34  34 100 NE5       29.78F VSB 1/4 WCI  30
MANITOWOC      NOT AVBL
APPLETON       CLOUDY    32  32 100 NE3       29.75F FOG
CLINTONVILLE   CLOUDY    32  32 100 NE3       29.78F FOG
OSHKOSH        CLOUDY    33  32  96 N3        29.74F FOG
$$

WIZ032>034-041-042-053>061-200800-
SOUTHWEST WISCONSIN

CITY           SKY/WX    TMP DP  RH WIND       PRES   REMARKS
LA CROSSE      CLOUDY    37  35  92 CALM      29.68F FOG
SPARTA         DRIZZLE   34  34 100 E3        29.71F
VIROQUA        CLOUDY    34  34 100 E8        29.66F WCI  27
BOSCOBEL       CLOUDY    37  35  92 E3        29.67F FOG
PRAIRIE DU CHI DRZL/FOG  35  34  96 CALM      29.67F VSB 1
PLATTEVILLE    CLOUDY    36  36 100 E7        29.65F WCI  30
$$

WIZ056-057-062-063-064-067-068-200800-
SOUTH CENTRAL WISCONSIN

CITY           SKY/WX    TMP DP  RH WIND       PRES   REMARKS
REEDSBURG      CLOUDY    34  34 100 NE7       29.69F FOG     WCI  28
BARABOO/DELLS  LGT RAIN  34  33  98 E9        29.70F VSB 1   WCI  26
LONE ROCK      NOT AVBL
MINERAL POINT  CLOUDY    36  36 100 E8        29.65F FOG     WCI  29
MADISON        LGT RAIN  35  33  92 E6        29.70F FOG     WCI  30
MIDDLETON      CLOUDY    36  36 100 E8        29.69F WCI  30
WATERTOWN      DRIZZLE   35  35 100 NE7       29.71F WCI  29
MONROE         FOG       34  34 100 NE8       29.65F VSB 1/4 WCI  27
JANESVILLE     CLOUDY    36  36 100 NE10      29.67F WCI  28
$$

WIZ051-052-058>065-066-070>072-200800-
SOUTHEAST WISCONSIN

CITY           SKY/WX    TMP DP  RH WIND       PRES   REMARKS
MILWAUKEE      LGT RAIN  38  36  92 E8        29.72F VSB 1   WCI  32
WAUKESHA       LGT RAIN  34  34 100 NE6       29.73F WCI  29
MILWAUKEE/TIMM LGT RAIN  36  34  93 NE3       29.74F
RACINE         LGT RAIN  38  36  92 E10       29.73F FOG     WCI  31
KENOSHA        RAIN      37  36  96 NE12      29.70F VSB 1   WCI  29
FOND DU LAC    LGT RAIN  34  31  88 N5        29.74F FOG     WCI  30
SHEBOYGAN      LGT RAIN  33  32  96 CALM      29.75F VSB 1/4
WEST BEND      DRZL/FOG  34  34 100 NE5       29.75F VSB 1/4 WCI  30
JUNEAU         RAIN      33  33  99 NE5       29.74F VSB 1   WCI  29
$$

LSZ147-162-200800-
LAKE SUPERIOR

STATION/POSITION TIME  TEMP    WIND        PRES    WAVE
                       AIR SEA DIR/SP/G            HT/PER
                 (UTC) (F)     (DEG/KT/KT) (MB)    (FT/S)
DEVILS ISLAND    0600   39     200/  6/  6 1006.7S
PORT WING        0640   34     350/  2/  2 1005.8F
SAXON HARBOR     0640   33     190/  5/  8 1006.4S
$$

LMZ867-665-643>646-200800-
LAKE MICHIGAN

STATION/POSITION TIME  TEMP    WIND        PRES    WAVE
                       AIR SEA DIR/SP/G            HT/PER
                 (UTC) (F)     (DEG/KT/KT) (MB)    (FT/S)
NORTHPORT PIER   0640   33        CALM     1009.5F
SISTER BAY       0550   33        CALM       N/A
ALGOMA LAKESHORE 0624             CALM       N/A
KEWAUNEE LAKESHO 0630   33      CALM  /  1 1008.3F
SHEBOYGAN LAKESH 0600   36      30/  4/  4 1008.8F
PORT WASHINGTON  0640   36      30/  7/  8 1008.5F
MILWAUKEE LAKESH 0630   36      40/  6/  7   N/A
KENOSHA   LAKESH 0600   36      70/ 10/ 10 1007.1
$$

TC  - TEMPERATURE IN CELSIUS
VSB - VISIBILITY IN STATUTE MILES
WCI - WIND CHILL INDEX
HX  - HEAT INDEX





USA.gov is the U.S. government's official web portal to all federal, state and local government web resources and services.